Regional Weather Roundup
Issued by NWS

Home | Current Version | Previous Version | Text Only | Print | Product List | Glossary On
Versions: 1 2 3 4 5 6 7 8 9 10 11 12 13 14 15 16 17 18 19 20 21 22 23 24 25 26 27 28 29 30 31 32 33 34 35 36 37 38 39 40 41 42 43 44 45 46 47 48 49 50
000
ASUS42 KTBW 281110
RWRFL
FLORIDA REGIONAL WEATHER ROUNDUP
NATIONAL WEATHER SERVICE TAMPA BAY RUSKIN FL
700 AM EDT THU AUG 28 2014

NOTE: "FAIR" INDICATES FEW OR NO CLOUDS BELOW 12,000 FEET WITH NO
SIGNIFICANT WEATHER AND/OR OBSTRUCTIONS TO VISIBILITY.


FLZ001>010-012>015-112-114-115-281200-
PANHANDLE FLORIDA

CITY           SKY/WX    TMP DP  RH WIND       PRES   REMARKS
PENSACOLA      PTCLDY    73  71  93 CALM      30.00R
PENSACOLA NAS  MOCLDY    72  71  97 CALM      29.99R
MILTON NAS     PTCLDY    70  68  93 CALM      30.00R
CRESTVIEW      PTCLDY    67  65  93 CALM      30.01R
DUKE FIELD     FAIR      68  68  99 S2        30.00R
VALPARAISO     MOCLDY    72  69  89 NW2       30.00R
MARY ESTHER    PTCLDY    71  66  84 N6        29.99R
TRI COUNTY     LGT RAIN  66  65  96 CALM      30.01R
PANAMA CITY    FAIR      71  67  87 CALM      29.99R
TYNDALL AFB    PTCLDY    72  72 100 CALM      30.00R FOG
APALACHICOLA   CLEAR     71  68  90 NE6       29.99R

STATION/POSITION SKY/WX   TEMP    WIND        PRES    WAVE   SWELL
                          AIR SEA DIR/SP/G            HT/PER HT/PER
                          (F)     (DEG/KT/KT) (MB)    (FT/S) (FT/S)
30.1N   87.6W              83 84   70/  4/  6 1015.5R   2/ 6   2/ 6
29.2N   88.2W              84 85   90/  8/ 10 1015.0R
28.8N   86.0W              85 86   60/ 10/ 12 1014.6    2/ 5   2/ 5
PANAMA CITY BEAC           77 85   10/  5/  5 1015.4R
CAPE SAN BLAS    NOT AVBL
TOWER C                    83     120/ 11/ 12 1015.3R
28.5N   84.5W              83 86  100/ 14/ 16 1014.5R   3/ 4

$$
FLZ011-016>038-118-127-128-134-139-239-281200-
NORTH FLORIDA

CITY           SKY/WX    TMP DP  RH WIND       PRES   REMARKS
MARIANNA       PTCLDY    68  68 100 NE3       30.00R
TALLAHASSEE    PTCLDY    69  65  86 CALM      30.01R
PERRY          CLEAR     68  66  94 NE3       30.01S
CROSS CITY       N/A     64  62  93 CALM      30.00S
LAKE CITY      FAIR      63  63 100 CALM      30.02R FOG
GAINESVILLE    CLEAR     65  64  97 CALM      30.01R
MAYPORT NAS    PTCLDY    71  68  90 W6        30.01R
JACKSONVILLE   PTCLDY    65  64  97 CALM      30.02R
JAX NAS        PTCLDY    73  66  78 CALM      30.02R
JAX CRAIG      CLEAR     70  67  90 NW3       30.01R
JAX CECIL      CLEAR     61  59  94 CALM      30.02S
FERNANDINA BEA FAIR      70  64  83 NW5       30.00S
ST AUGUSTINE   CLEAR     70  68  93 CALM      30.02R

STATION/POSITION SKY/WX   TEMP    WIND        PRES    WAVE   SWELL
                          AIR SEA DIR/SP/G            HT/PER HT/PER
                          (F)     (DEG/KT/KT) (MB)    (FT/S) (FT/S)
SHELL POINT                75      10/  4/  5   N/A
KEATON BEACH               71     100/  5/  6 1016.0R
CEDAR KEY                  78      90/  6/  7 1016.0R
FERNANDINA                 72 82  310/  3/  4 1015.9R
30.7N   81.3W                 83                N/A     4/ 9   2/11
MAYPORT                    71 83  310/  6/  7   N/A
31.4N   80.9W              81 84  190/  4/  6 1016.2R   4/10   3/10
ST AUGUSTINE               72     300/  3/  4 1016.8R

$$
FLZ040-043>046-052-053-057-058-063-144-281200-
INTERIOR CENTRAL FLORIDA

CITY           SKY/WX    TMP DP  RH WIND       PRES   REMARKS
OCALA          CLEAR     66  64  94 CALM      30.01R
LEESBURG       PTCLDY    72  70  93 CALM      30.01R
SANFORD        CLEAR     74  70  87 CALM      29.99S
ORLANDO EXEC   CLEAR     75  71  87 CALM      30.00R
ORLANDO INTL   PTCLDY    74  70  87 E3        30.00R
KISSIMMEE      CLEAR     75  75 100 CALM      30.00
WINTER HAVEN   CLEAR     75  72  90 CALM      30.01R
LAKELAND       CLEAR     77  72  83 CALM      30.01R
BARTOW         FAIR      73 N/A N/A NE3       30.01R
OKEECHOBEE       N/A     70  70 100 MISG      29.99

$$
FLZ041-047-054-059-064-141-147-281200-
EAST CENTRAL FLORIDA

CITY           SKY/WX    TMP DP  RH WIND       PRES   REMARKS
ORMOND BEACH   CLEAR     68  66  94 CALM      30.00
DAYTONA BEACH  PTCLDY    71  69  93 CALM      30.00R
DELAND         SUNNY     70  68  94 CALM      30.01R
NEW SMYRNA BEA CLEAR     73  70  88 CALM      30.00
JFK SPACE CTR  CLEAR     74  72  94 CALM      29.99R
TITUSVILLE     PTCLDY    70  70 100 CALM      30.00
CAPE CANAVERAL CLEAR     72  70  93 NW2       29.98S
PATRICK AFB    CLEAR     79  75  89 S3        29.99R
MELBOURNE      CLEAR     74  72  93 CALM      29.98S
VERO BEACH     CLEAR     71  70  96 CALM      29.99R
FT PIERCE      CLEAR     71  68  90 CALM      29.99R

STATION/POSITION SKY/WX   TEMP    WIND        PRES    WAVE   SWELL
                          AIR SEA DIR/SP/G            HT/PER HT/PER
                          (F)     (DEG/KT/KT) (MB)    (FT/S) (FT/S)
28.5N   80.2W              82 82  180/  4/  6 1015.5R
28.9N   78.5W              82 83  180/  6/ 10 1015.7R   9/11   8/11
TRIDENT PIER               75 83  350/  1/  1 1015.0S
28.4N   80.5W                 82                N/A     4/11   2/11
27.6N   80.2W                 83                N/A     6/11   3/11

$$
FLZ050-056-061-142-242-148-248-149-249-151-251-155-255-
160-260-281200-
WEST CENTRAL FLORIDA

CITY           SKY/WX    TMP DP  RH WIND       PRES   REMARKS
CRYSTAL RIVER  FAIR      70  68  94 CALM      30.00R
INVERNESS      FAIR      70  54  56 CALM      30.01S
BROOKSVILLE    CLEAR     72  70  93 E3        30.00R
ZEPHYRHILLS    FAIR      68  68 100 CALM      30.01S
CLEARWATER     CLEAR     78  74  87 E6        29.98R
TAMPA INTL     PTCLDY    77  72  84 VRB5      30.00R
TAMPA EXEC     CLEAR     73  72  94 CALM      30.00R
MACDILL AFB    CLEAR     76  76 100 E8        29.99R
ST PETERSBURG  CLEAR     80  74  81 E12       29.98R
SARASOTA       CLEAR     75  73  93 E8        29.97R
VENICE           N/A    N/A N/A N/A MISG        N/A

STATION/POSITION SKY/WX   TEMP    WIND        PRES    WAVE   SWELL
                          AIR SEA DIR/SP/G            HT/PER HT/PER
                          (F)     (DEG/KT/KT) (MB)    (FT/S) (FT/S)
CEDAR KEY                  78      90/  6/  7 1016.0R
28.5N   84.5W              83 86  100/ 14/ 16 1014.5R   3/ 4
27.3N   84.3W                 87                N/A     3/ 4
CLEARWATER BEACH           78 86   70/  7/  8 1014.9R
MIDDLE TAMPA BAY           78      90/ 12/ 13 1015.5R
VENICE                     76 87   80/  6/  7 1014.8R

$$
FLZ066-069-070-075>078-162-262-165-265-281200-
SOUTHWEST FLORIDA AND KEYS

CITY           SKY/WX    TMP DP  RH WIND       PRES   REMARKS
PUNTA GORDA    PTCLDY    76  74  93 NE3       29.99R
FT MYERS       CLEAR     75  73  93 E6        29.96R
SOUTHWEST INTL MOCLDY    75  72  90 NE7       29.97R
NAPLES         CLOUDY    80  75  84 E9        29.95S
MARCO ISLAND   SUNNY     77  75  94 E6        29.96R
MARATHON       CLOUDY    82  79  90 S10G20    29.96R
KEY WEST NAS   PTCLDY    83  76  79 S15       29.95S
KEY WEST INTL  CLEAR     85  76  74 S17       29.95S

STATION/POSITION SKY/WX   TEMP    WIND        PRES    WAVE   SWELL
                          AIR SEA DIR/SP/G            HT/PER HT/PER
                          (F)     (DEG/KT/KT) (MB)    (FT/S) (FT/S)
VENICE                     76 87   80/  6/  7 1014.8R
NAPLES                     79      70/  5/  8 1014.7S
DRY TORTUGAS               85     180/ 17/ 19 1013.4R
NW FL BAY                  84     230/  9/ 14 1014.1R
SAND KEY                   83     180/ 18/ 22 1014.0R
SOMBRERO KEY               84     190/ 20/ 24 1014.9R
LONG KEY                   84 86  210/ 17/ 20 1014.8R
MOLASSES REEF              84 87  200/ 16/ 18 1014.7R

$$
FLZ067-068-071>074-168-172>174-281200-
SOUTHEAST FLORIDA

CITY           SKY/WX    TMP DP  RH WIND       PRES   REMARKS
W PALM BEACH   MOCLDY    80  74  81 CALM      29.96R
FT LAUDER-EXEC LGT RAIN  83  77  82 SE5       29.96R
FT LAUDERDALE  MOCLDY    83  75  77 CALM      29.96R
POMPANO BEACH    N/A     84  74  71 E6        29.96R
PEMBROKE PINES PTCLDY    80  76  87 NW5       29.98R
OPA LOCKA      CLEAR     80  76  87 CALM      29.97R
MIAMI          MOCLDY    80  75  84 CALM      29.97R
WEST KENDALL   CLEAR     79  74  84 CALM      29.97R
HOMESTEAD      PTCLDY    78  76  92 S5        29.97R

STATION/POSITION SKY/WX   TEMP    WIND        PRES    WAVE   SWELL
                          AIR SEA DIR/SP/G            HT/PER HT/PER
                          (F)     (DEG/KT/KT) (MB)    (FT/S) (FT/S)
PORT EVERGLADES            84     150/  6/  9 1014.5
VIRGINIA KEY               83 86  210/  5/  6   N/A
LAKE WORTH                 83 87  100/  6/  7 1014.6R
FOWEY ROCKS                83 87  220/ 10/ 11 1015.0R
SETTLEMENT POINT           83      80/  5/  6 1015.8R

$$



USA.gov is the U.S. government's official web portal to all federal, state and local government web resources and services.